Regional Weather Roundup
Issued by NWS Boston, MA

Home | Current Version | Previous Version | Text Only | Print | Product List | Glossary On
Versions: 1 2 3 4 5 6 7 8 9 10 11 12 13 14 15 16 17 18 19 20 21 22 23 24 25 26 27 28 29 30 31 32 33 34 35 36 37 38 39 40 41 42 43 44 45 46 47 48 49 50
000
ASUS41 KBOX 192110
RWRBOX

REGIONAL WEATHER ROUNDUP
NATIONAL WEATHER SERVICE TAUNTON MA
400 PM EST SUN FEB 19 2017

NOTE:  "FAIR" INDICATES FEW OR NO CLOUDS BELOW 12,000 FEET WITH NO
SIGNIFICANT WEATHER AND/OR OBSTRUCTIONS TO VISIBILITY.

MAZALL-192200-
EASTERN MASSACHUSETTS

CITY           SKY/WX    TMP DP  RH WIND       PRES   REMARKS
BOSTON         MOSUNNY   59  31  34 W14       29.71R
BEVERLY        MOSUNNY   57  29  34 NW14      29.70R
LAWRENCE       SUNNY     57  29  34 NW12      29.72R
BEDFORD        MOSUNNY   54  26  34 W12       29.71R
BLUE HILL        N/A     53  28  38 W18G30    29.70R
NORWOOD        MOSUNNY   59  29  31 W12       29.72R
MARSHFIELD     MOSUNNY   61  32  33 VRB7G13   29.71R
PLYMOUTH       MOSUNNY   58  31  35 W8        29.72R
TAUNTON        MOSUNNY   59  29  31 NW6       29.72R
NEW BEDFORD      N/A     61  31  32 W10       29.71R
$$

MAZALL-192200-
CAPE COD AND THE ISLANDS

CITY           SKY/WX    TMP DP  RH WIND       PRES   REMARKS
FALMOUTH       MOSUNNY   55  36  47 MISG      29.73R
HYANNIS        MOSUNNY   58  35  42 W9        29.71R
CHATHAM        SUNNY     56  37  49 SW9       29.72R
PROVINCETOWN   CLOUDY    54  35  48 W10       29.72R
NANTUCKET      SUNNY     53  36  52 W20       29.74R
MARTHAS VNYRD  SUNNY     58  35  42 W12G20    29.73R
$$

MAZALL-192200-
CENTRAL AND WESTERN MASSACHUSETTS

CITY           SKY/WX    TMP DP  RH WIND       PRES   REMARKS
WORCESTER      SUNNY     54  27  35 W12G23    29.73R
FITCHBURG      SUNNY     57  30  35 W14       29.74R
ORANGE         MOSUNNY   54  31  41 W13G23    29.75R
SPRINGFIELD    MOSUNNY   53  29  40 W14G22    29.76R
WESTFIELD      SUNNY     55  29  36 NW16G26   29.77R
NORTH ADAMS    SUNNY     51  30  44 W21G30    29.78R
PITTSFIELD     SUNNY     49  29  46 W21G33    29.78R
$$

RIZALL-192200-
RHODE ISLAND

CITY           SKY/WX    TMP DP  RH WIND       PRES   REMARKS
PROVIDENCE     NOT AVBL
NEWPORT        CLOUDY    60  34  37 VRB7      29.73R
BLOCK ISLAND   SUNNY     55  38  52 W16       29.77R
SMITHFIELD     MOSUNNY   57  28  33 W12G26    29.73R
WESTERLY       SUNNY     55  35  47 SW7       29.77R
$$

CTZALL-192200-
CONNECTICUT

CITY           SKY/WX    TMP DP  RH WIND       PRES   REMARKS
BRADLEY INTL   MOSUNNY   56  27  32 NW20G29   29.78R
HARTFORD       SUNNY     61  30  31 W9        29.77R
BRIDGEPORT     SUNNY     63  34  33 W10       29.79R
DANBURY        SUNNY     61  29  29 W7        29.80R
GROTON         SUNNY     58  36  43 W10       29.76R
NEW HAVEN      SUNNY     58  34  40 W3        29.78R
CHESTER        FAIR      61  30  31 W9G16     29.78R
MERIDEN        SUNNY     61  31  32 W8        29.78R
WILLIMANTIC    SUNNY     61  28  28 W7G20     29.76R
OXFORD         SUNNY     59  30  33 W8        29.80R
$$

MEZ002-015-021-024-NHZ003-005-008-011-012-014-VTZ005-008-192200-
NORTHERN NEW ENGLAND

CITY           SKY/WX    TMP DP  RH WIND       PRES   REMARKS
PORTLAND ME    MOSUNNY   51  28  41 NW15      29.70R
BANGOR ME      CLOUDY    47  37  68 W8        29.64R
CONCORD NH     CLOUDY    51  30  44 NW13      29.72R
MANCHESTER NH  MOSUNNY   55  28  35 NW9       29.70R
NASHUA NH      MOSUNNY   55  30  38 NW12      29.72R
PORTSMOUTH NH  PTSUNNY   50  29  45 NW14      29.69R
JAFFREY NH     PTSUNNY   53  29  39 VRB6G16   29.74R
KEENE NH       PTSUNNY   56  30  37 NW13G22   29.74R
BURLINGTON VT  PTSUNNY   47  31  53 N9        29.79R
MT. WASHINGTON FOG       21  21 100 W71G78      N/A  VSB 0   WCI  -4
$$

NYZ052-076-192200-
EASTERN NEW YORK

CITY           SKY/WX    TMP DP  RH WIND       PRES   REMARKS
ALBANY         MOSUNNY   52  32  46 W14G28    29.84R
NEW YORK CITY  MOSUNNY   66  30  26 W15G22    29.81R
$$

ANZALL-192200-
MARINE OBSERVATIONS

STATION/POSITION TIME  TEMP    WIND        PRES    VSBY  WAVE
                       AIR SEA DIR/SP/G                  HT/PER
                 (UTC) (F)     (DEG/KT/KT) (MB)    (MI)  (FT/S)
BOSTON BUOY      1950   51 42  260/ 10/ 12 1004.1          1
BUZZARDS BAY     2000   45     240/ 19/ 20 1007.1S
NANTUCKET SOUND  1950   46 39  240/ 16/ 17 1006.0          1/ 3
MASS BAY-STELLWA 2004   47 40  240/  6/  6 1004.2R         1/ 6
ISLE OF SHOALS   2000   55     240/ 14/ 14 1004.2R
S OF BLOCK IS    2055      43                N/A           4/ 7
$$

......................KEY.........................
  SKY/WX - SKY CONDITION/PRESENT WEATHER
  TMP    - TEMPERATURE IN FAHRENHEIT
  DWPT   - DEWPOINT IN FAHRENHEIT
  RH     - RELATIVE HUMIDITY IN PERCENT
  WIND   - DIRECTION AND SPEED IN MPH
  PRES   - MEAN SEA LEVEL PRESSURE IN INCHES OF HG
  WCI    - WIND CHILL INDEX
  VSB    - VISIBILITY IN MILES
  HX     - HEAT INDEX
  TC     - TEMPERATURE IN CELSIUS
  VRB    - VARIABLE WIND DIRECTION
  N/A    - NOT AVAILABLE



USA.gov is the U.S. government's official web portal to all federal, state and local government web resources and services.